{"data":{"norad_id":81964,"epoch":"2026-05-23T14:28:31.721088Z","epoch_age_seconds":199175,"freshness":"STALE","line1":"1 81964U          26143.60314492  .00000098  00000+0  12913-3 0  9998","line2":"2 81964  66.5843 216.7605 0039752 329.1298  30.7444 13.95899974636639","mean_motion":13.95899974,"eccentricity":0.0039752,"inclination_deg":66.5843,"raan_deg":216.7605,"arg_perigee_deg":329.1298,"mean_anomaly_deg":30.7444,"bstar":0.00012913,"rev_number":63663,"period_min":103.15925401686,"perigee_km":879.06359093066,"apogee_km":936.99151358694,"semimajor_km":7286.1645522588,"source":"CELESTRAK","updated_at":"2026-05-25T13:38:11.089162Z"}}